Temp
4 4 4 4 4 4 5 5 5 5 5 6 6 6 6 7 7 7 7 8 8 8 7 8 7 7 7 6 6 6 6 8 9 8 8 7 7 6 7 7 7 7 7 7 6
3 4 4 4 4 4 4 4 5 5 5 5 5 5 6 6 7 7 7 7 8 8 8 7 7 7 7 6 6 5 7 8 8 7 7 7 6 6 6 7 7 7 7 7 6
3 3 3 3 3 3 3 4 4 4 5 5 5 5 5 5 6 6 7 7 7 8 7 7 7 7 6 6 5 6 6 8 7 6 6 6 6 6 6 7 7 7 7 7 7
2 3 3 3 3 3 3 3 4 4 4 4 4 5 4 4 4 5 5 6 7 6 7 6 6 6 5 5 5 6 5 6 6 6 6 6 6 6 6 7 7 7 7 7 7
2 2 2 3 3 3 3 3 4 4 4 5 4 4 4 4 5 5 5 5 6 6 6 6 5 5 5 5 5 6 6 6 6 6 6 6 6 6 6 7 6 7 7 7 7
1 2 2 2 2 2 3 3 3 4 4 4 4 4 4 4 5 5 5 5 5 5 5 5 5 4 5 5 4 6 5 5 6 6 6 5 6 6 8 7 7 7 7 7 7
1 1 1 1 2 2 2 3 3 4 4 4 4 4 4 5 5 5 5 5 4 4 5 5 5 4 3 5 4 5 5 5 5 6 6 6 6 7 7 7 7 7 7 7 7
0 1 1 1 1 2 2 2 3 3 4 4 4 4 5 5 5 5 5 5 5 5 4 4 4 4 3 3 4 4 5 6 7 7 6 6 8 8 7 7 7 7 8 8 7
-0 -0 0 1 1 1 1 2 2 3 3 4 4 4 4 4 5 5 5 5 5 5 5 4 4 4 2 3 4 5 6 7 7 6 6 6 8 8 7 7 8 8 8 8 7
-0 -0 -0 -0 0 1 1 1 2 2 3 3 3 4 3 3 4 4 4 5 4 4 4 4 3 3 2 3 5 6 6 6 6 7 5 7 7 8 7 7 8 8 8 8 8
-1 -1 -1 -1 -0 0 1 1 1 2 2 2 2 3 3 3 3 3 3 4 5 4 4 3 3 2 4 3 5 6 5 6 7 6 5 6 7 7 8 8 7 8 8 8 8
-1 -2 -1 -1 -1 -1 -1 -0 -0 0 3 3 3 3 3 3 4 4 3 2 3 4 3 1 2 3 3 3 4 4 4 5 6 6 5 6 7 7 7 8 7 7 8 8 8
-2 -2 -2 -2 -2 -2 -2 -1 -1 -1 0 3 2 2 2 3 3 3 2 2 2 2 3 3 3 3 3 3 2 3 4 5 5 6 5 5 6 7 7 7 7 8 7 8 8
-2 -2 -2 -2 -2 -2 -2 -2 -2 -2 -1 0 0 0 1 1 1 1 1 1 -0 0 1 1 2 2 3 3 3 3 4 4 4 5 6 6 8 8 8 7 8 8 7 8 8
-3 -3 -3 -3 -3 -3 -3 -3 -3 -3 -0 -0 -0 -1 -1 0 0 0 0 1 1 -0 0 2 2 3 2 3 3 3 3 4 4 4 5 6 6 7 8 7 8 8 8 8 7
-4 -4 -3 -4 -4 -4 -4 -5 -4 -4 -1 -2 -2 -2 -1 -1 -1 -1 -0 0 0 -1 -1 -1 0 1 2 2 2 2 3 3 3 4 6 5 6 8 8 8 8 8 7 7 8
-5 -4 -4 -5 -5 -5 -5 -6 -6 -3 -3 -3 -3 -2 -2 -1 -2 -1 -1 -1 -1 -0 -0 -0 -0 1 1 2 3 1 3 5 5 5 6 7 6 8 8 7 7 7 7 8 8
-6 -5 -5 -6 -6 -6 -6 -7 -6 -4 -4 -5 -3 -2 -2 -2 -2 -1 -2 -1 -2 -1 0 2 2 1 1 2 3 3 3 5 6 7 8 6 7 8 7 7 7 7 7 7 8
-6 -6 -6 -7 -7 -7 -8 -8 -5 -5 -6 -6 -5 -3 -2 -3 -2 -2 -2 -2 -3 -2 -1 -0 2 1 1 1 2 3 2 3 4 5 5 7 7 6 7 7 7 7 7 8 8
-8 -7 -7 -8 -8 -8 -9 -8 -7 -7 -6 -6 -5 -4 -3 -4 -3 -3 -3 -3 -3 -2 -3 -2 -1 1 1 1 1 3 4 3 3 5 6 8 7 8 7 7 8 7 7 8 8
-11 -10 -9 -9 -9 -10 -10 -9 -9 -9 -7 -7 -7 -6 -5 -5 -5 -5 -4 -3 -4 -3 -3 -3 -2 1 1 2 3 2 2 3 4 5 6 7 8 7 7 7 7 7 7 8 8
-12 -12 -10 -11 -10 -11 -11 -11 -9 -8 -8 -8 -8 -8 -7 -7 -6 -5 -5 -5 -4 -4 -4 -4 -3 -2 -0 1 1 1 3 3 4 5 5 5 7 6 6 6 7 7 7 8 8
-12 -12 -11 -11 -11 -11 -11 -11 -10 -10 -10 -10 -9 -8 -8 -8 -7 -6 -6 -6 -5 -5 -5 -5 -3 -1 1 1 1 1 1 1 1 2 3 5 6 5 5 6 7 7 7 7 8
-12 -12 -12 -12 -11 -11 -10 -10 -11 -11 -10 -10 -10 -9 -9 -8 -8 -7 -7 -7 -6 -6 -6 -6 -5 -3 1 0 -1 -1 -1 -0 -1 0 3 4 4 4 5 5 6 6 7 7 7
-12 -12 -12 -12 -11 -11 -11 -11 -10 -10 -11 -10 -10 -10 -9 -9 -8 -8 -7 -7 -7 -6 -6 -6 -5 -4 -3 -3 -2 -2 -1 -0 -0 0 0 2 3 4 4 5 5 6 6 7 7
-12 -13 -12 -12 -12 -12 -11 -11 -10 -10 -10 -10 -10 -9 -9 -9 -8 -7 -8 -8 -7 -7 -7 -6 -5 -5 -4 -3 -3 -2 -1 -0 0 0 1 1 1 2 3 4 5 5 6 6 6
-13 -12 -12 -12 -12 -12 -11 -11 -11 -11 -10 -10 -10 -10 -9 -9 -9 -8 -8 -8 -8 -8 -7 -7 -6 -5 -3 -3 -3 -2 -1 -0 1 1 1 1 2 3 3 4 4 5 6 6 6
Height
3136 3134 3133 3132 3131 3130 3129 3128 3127 3127 3127 3127 3127 3127 3126 3126 3126 3125 3126 3127 3126 3126 3125 3126 3125 3125 3125 3125 3127 3127 3128 3126 3126 3124 3124 3123 3121 3121 3120 3119 3117 3115 3113 3110 3107
3131 3130 3129 3128 3127 3127 3125 3123 3122 3121 3121 3121 3121 3120 3119 3119 3120 3121 3121 3120 3121 3121 3120 3122 3121 3122 3121 3123 3122 3123 3124 3122 3122 3122 3121 3120 3118 3118 3117 3116 3113 3111 3108 3105 3102
3126 3125 3124 3124 3123 3121 3120 3118 3117 3116 3116 3116 3116 3115 3113 3112 3114 3115 3115 3114 3114 3115 3116 3116 3117 3118 3119 3118 3118 3118 3117 3120 3117 3117 3116 3115 3115 3115 3114 3112 3112 3109 3106 3101 3098
3121 3119 3119 3118 3117 3116 3115 3113 3110 3110 3110 3110 3109 3110 3109 3109 3113 3111 3109 3109 3109 3109 3110 3112 3113 3112 3116 3114 3115 3113 3113 3114 3113 3114 3111 3111 3112 3110 3110 3108 3107 3103 3100 3097 3094
3116 3114 3113 3112 3112 3111 3110 3107 3105 3105 3105 3103 3103 3104 3105 3104 3108 3105 3105 3105 3104 3105 3107 3107 3108 3109 3110 3113 3112 3107 3110 3109 3108 3107 3107 3106 3105 3105 3102 3103 3102 3098 3096 3093 3091
3110 3109 3108 3106 3105 3105 3104 3102 3098 3099 3098 3097 3097 3096 3096 3098 3101 3101 3099 3100 3099 3100 3100 3102 3104 3105 3105 3107 3106 3107 3103 3104 3103 3103 3102 3101 3099 3102 3096 3100 3096 3094 3092 3090 3087
3103 3102 3101 3100 3099 3098 3097 3095 3093 3094 3093 3091 3090 3089 3088 3093 3092 3094 3094 3093 3094 3094 3094 3096 3097 3098 3100 3101 3100 3100 3099 3100 3098 3097 3098 3099 3093 3093 3093 3093 3092 3090 3089 3087 3084
3098 3097 3096 3094 3093 3092 3091 3090 3088 3087 3086 3085 3084 3082 3080 3084 3086 3085 3085 3087 3086 3088 3089 3089 3090 3091 3094 3097 3095 3096 3096 3094 3094 3093 3093 3094 3090 3090 3089 3089 3089 3087 3086 3084 3081
3091 3090 3090 3089 3088 3086 3086 3084 3082 3080 3080 3079 3079 3077 3076 3076 3078 3077 3076 3078 3079 3080 3082 3083 3083 3085 3087 3090 3093 3092 3089 3089 3091 3088 3091 3089 3087 3088 3085 3085 3085 3084 3082 3080 3077
3084 3084 3084 3083 3081 3080 3080 3078 3077 3075 3074 3074 3074 3075 3073 3073 3072 3072 3071 3071 3073 3073 3074 3075 3077 3078 3080 3084 3081 3084 3084 3085 3084 3087 3083 3085 3083 3084 3083 3081 3081 3080 3079 3077 3074
3078 3078 3078 3078 3076 3075 3075 3074 3074 3070 3069 3070 3071 3065 3067 3066 3066 3067 3065 3065 3066 3068 3069 3070 3071 3066 3074 3077 3079 3081 3080 3080 3081 3082 3080 3080 3079 3078 3079 3078 3077 3076 3075 3073 3071
3072 3072 3072 3072 3071 3070 3069 3068 3067 3065 3059 3064 3063 3060 3058 3057 3056 3059 3060 3061 3059 3062 3064 3066 3061 3068 3071 3072 3074 3075 3075 3076 3077 3079 3077 3074 3073 3072 3073 3072 3072 3071 3070 3069 3068
3064 3064 3065 3066 3065 3065 3065 3064 3062 3059 3057 3054 3053 3052 3052 3051 3049 3051 3051 3052 3053 3055 3055 3058 3061 3061 3063 3064 3066 3067 3068 3072 3072 3074 3072 3070 3066 3065 3066 3066 3065 3065 3064 3065 3064
3057 3057 3058 3059 3061 3060 3060 3059 3058 3056 3054 3050 3049 3048 3048 3047 3046 3044 3044 3047 3047 3049 3052 3050 3055 3057 3058 3057 3062 3059 3065 3066 3067 3069 3066 3065 3059 3059 3060 3060 3060 3061 3059 3059 3059
3049 3050 3050 3051 3053 3055 3056 3054 3054 3056 3054 3048 3045 3044 3044 3047 3044 3042 3042 3040 3040 3042 3046 3043 3044 3048 3051 3052 3055 3055 3059 3061 3062 3062 3062 3061 3061 3053 3054 3053 3054 3055 3055 3054 3055
3042 3042 3043 3044 3046 3049 3049 3050 3052 3057 3047 3044 3042 3042 3044 3043 3042 3040 3040 3039 3036 3035 3037 3038 3042 3041 3045 3048 3050 3053 3055 3057 3056 3057 3052 3054 3055 3046 3048 3049 3050 3050 3049 3049 3051
3034 3034 3035 3037 3040 3041 3044 3046 3053 3047 3041 3042 3040 3040 3041 3041 3040 3039 3038 3037 3037 3036 3033 3033 3033 3037 3040 3043 3044 3048 3052 3050 3050 3048 3043 3044 3049 3043 3043 3045 3046 3046 3047 3046 3047
3026 3026 3026 3030 3032 3034 3038 3042 3043 3036 3037 3034 3037 3038 3040 3038 3038 3036 3036 3036 3034 3032 3032 3029 3028 3028 3034 3035 3040 3039 3045 3043 3039 3035 3034 3040 3037 3037 3038 3039 3041 3041 3041 3042 3043
3017 3018 3020 3023 3024 3027 3032 3033 3030 3031 3032 3032 3034 3036 3037 3036 3037 3035 3034 3033 3031 3029 3033 3028 3026 3025 3028 3031 3036 3038 3038 3042 3041 3039 3038 3032 3033 3034 3033 3035 3037 3037 3038 3039 3040
3009 3010 3014 3015 3018 3021 3025 3023 3025 3025 3027 3028 3031 3032 3033 3034 3034 3033 3032 3031 3030 3028 3028 3029 3027 3025 3025 3025 3029 3031 3036 3038 3038 3033 3028 3026 3027 3029 3030 3031 3034 3034 3034 3035 3036
3004 3003 3006 3010 3012 3014 3014 3018 3018 3019 3022 3026 3028 3029 3030 3031 3030 3030 3029 3029 3027 3026 3027 3027 3028 3025 3022 3023 3024 3028 3028 3030 3029 3028 3023 3021 3021 3025 3028 3028 3031 3030 3030 3030 3031
2997 2997 3000 3004 3007 3005 3007 3011 3011 3014 3017 3020 3022 3024 3026 3027 3027 3027 3025 3026 3024 3022 3024 3023 3025 3022 3020 3020 3020 3021 3023 3025 3024 3022 3022 3023 3021 3024 3025 3027 3028 3027 3028 3028 3028
2990 2993 2996 2999 2999 3000 3003 3005 3007 3010 3012 3014 3016 3018 3021 3022 3024 3021 3020 3020 3019 3020 3020 3020 3021 3020 3016 3018 3017 3018 3019 3019 3018 3020 3016 3019 3020 3019 3024 3023 3025 3026 3027 3027 3028
2987 2989 2989 2991 2992 2997 3000 3002 3004 3005 3006 3009 3010 3013 3015 3016 3017 3015 3015 3015 3015 3016 3015 3017 3017 3017 3014 3014 3015 3016 3015 3016 3017 3016 3014 3012 3017 3019 3020 3021 3022 3022 3024 3025 3025
2978 2979 2982 2984 2986 2990 2995 2997 3000 3003 3003 3005 3005 3006 3010 3011 3011 3010 3011 3011 3011 3011 3012 3014 3012 3014 3013 3011 3010 3010 3010 3011 3011 3012 3010 3012 3012 3014 3017 3016 3016 3018 3020 3021 3023
2971 2974 2978 2982 2984 2985 2988 2991 2995 2998 3000 3001 3001 3003 3005 3005 3006 3006 3004 3005 3005 3006 3007 3005 3008 3008 3008 3008 3007 3005 3004 3003 3003 3004 3002 3004 2999 3009 3010 3013 3011 3013 3014 3015 3017
2966 2970 2974 2977 2979 2982 2984 2986 2990 2994 2994 2995 2998 2999 2999 2999 2999 2999 2998 2998 2998 3001 3003 3003 3005 3005 3002 3002 3001 2998 2992 2995 2994 2997 2997 2995 2996 2999 3000 3002 3005 3006 3007 3008 3011
Wind_Speed
27 26 27 27 27 27 28 28 29 29 29 29 30 29 29 26 22 21 21 21 20 20 17 20 17 17 16 17 16 15 13 14 14 14 16 15 16 13 15 16 21 18 19 23 23
25 26 26 26 26 27 27 28 29 29 29 29 29 29 30 30 26 22 23 21 21 21 21 21 19 18 18 18 19 19 16 14 14 14 15 17 16 14 17 18 21 21 25 23 23
26 28 29 29 29 29 30 31 32 31 30 29 29 28 29 29 27 24 26 22 20 22 21 20 21 19 19 19 20 17 22 15 16 13 15 20 19 18 18 22 16 20 22 25 18
28 29 29 29 30 30 31 30 31 31 32 34 32 29 28 26 15 12 14 12 15 14 16 15 19 21 20 21 17 22 21 21 18 18 21 22 22 23 22 24 21 22 22 17 17
30 30 30 29 29 29 30 30 31 31 30 31 32 33 30 29 19 24 25 19 17 16 15 15 19 20 19 16 19 25 21 22 21 22 25 25 27 25 27 21 22 22 16 15 17
30 31 30 30 30 30 30 31 32 31 31 30 31 31 32 32 27 22 23 26 29 29 28 25 22 21 22 21 21 14 18 21 20 21 21 23 25 22 18 20 20 17 15 14 17
31 31 31 31 31 31 31 32 33 32 33 33 34 33 32 26 28 26 25 25 22 26 29 27 28 29 19 26 25 25 24 22 23 23 21 19 26 25 12 14 15 15 14 15 17
32 32 32 32 31 31 30 32 32 32 31 31 32 33 36 31 24 25 30 27 27 28 27 25 26 31 29 23 24 17 18 21 16 13 15 14 17 8 11 13 14 16 16 18 15
31 31 31 31 31 31 29 30 30 30 30 29 30 30 32 23 17 19 23 25 22 30 33 33 31 27 24 27 23 22 23 20 16 15 14 17 18 14 14 15 14 17 16 16 15
30 30 29 30 30 30 29 31 31 31 31 29 28 19 4 6 9 17 20 22 21 17 26 35 34 30 25 24 30 24 25 21 21 12 12 17 22 21 16 18 17 15 14 15 15
30 30 29 29 30 30 30 30 30 33 28 27 27 33 24 25 22 21 20 19 26 24 21 23 31 35 31 30 30 24 19 19 17 12 13 16 22 23 20 18 17 17 15 11 13
30 30 29 29 29 28 29 28 28 29 35 29 28 27 26 25 26 25 30 25 23 22 18 18 30 28 26 30 28 30 26 24 22 19 20 23 24 20 23 22 21 20 19 15 13
30 30 29 28 28 27 26 27 27 29 32 34 26 22 17 20 21 22 31 32 31 25 29 29 16 11 24 28 29 31 31 27 26 19 21 23 28 26 22 22 22 21 22 19 17
30 29 29 27 27 25 23 24 24 25 22 20 10 6 9 9 8 11 15 28 26 22 19 26 28 23 19 24 27 30 24 26 23 20 19 10 17 17 18 23 22 22 22 15 14
30 29 29 29 26 23 21 19 19 17 6 8 7 9 7 6 9 9 10 9 25 25 21 21 21 27 26 26 21 23 17 22 20 21 23 25 17 18 16 17 14 16 18 16 11
30 29 30 28 25 21 19 15 14 6 8 4 5 5 3 5 4 8 9 6 5 21 28 27 16 19 20 19 21 14 13 11 10 13 18 24 20 16 20 14 6 7 5 12 15
30 29 29 25 22 20 15 13 6 10 4 3 7 7 3 4 3 6 5 4 3 4 12 23 32 22 21 15 17 17 13 8 9 9 8 10 17 25 9 13 14 12 14 16 16
28 28 28 21 20 19 15 15 13 4 11 10 8 4 3 5 4 3 1 4 3 6 8 6 5 28 23 28 17 22 25 12 9 10 8 14 11 18 11 11 12 9 7 12 15
28 26 24 19 20 19 18 19 10 11 12 13 11 13 13 8 7 3 3 2 0 1 4 4 6 7 19 25 24 18 27 26 25 19 9 12 10 13 13 12 11 15 11 14 16
24 25 19 20 19 18 21 22 16 17 16 15 11 9 11 10 5 5 3 3 3 3 1 4 7 4 5 7 23 27 10 14 20 9 15 15 18 12 11 11 7 9 10 14 17
16 20 19 19 17 19 22 17 17 17 20 16 14 14 11 9 7 8 8 9 7 11 8 7 5 7 8 8 9 20 27 19 14 22 11 11 12 12 18 15 8 10 12 14 18
18 20 19 17 20 20 19 15 21 21 23 23 15 14 15 15 17 19 20 15 9 15 12 6 6 9 13 10 11 10 11 24 27 22 19 23 22 3 11 9 8 5 7 9 12
23 19 17 17 20 21 14 13 15 14 12 13 16 16 17 20 19 19 19 16 14 8 4 6 6 8 6 9 17 11 9 11 12 15 29 18 6 5 16 19 16 13 5 8 10
28 19 23 25 25 18 16 19 17 14 14 14 13 15 17 18 18 15 14 10 13 13 12 10 9 12 13 5 4 7 8 11 7 11 20 28 26 27 22 16 19 13 13 10 11
31 31 21 15 29 28 18 12 17 19 14 8 11 19 19 20 21 24 23 21 18 17 15 13 17 15 19 23 23 22 22 21 21 20 22 23 24 19 20 25 24 18 17 13 14
35 29 24 20 15 16 28 25 22 15 16 10 15 12 12 19 20 14 11 13 12 8 10 14 15 13 18 19 22 26 29 30 30 26 29 34 42 30 25 20 26 24 28 23 18
33 32 29 21 23 20 22 21 18 17 22 19 14 16 18 19 23 18 19 20 22 14 11 11 9 9 15 9 15 22 33 33 35 31 27 31 32 25 30 29 25 22 18 25 26
Wind_Direction
291 291 291 291 292 292 291 289 289 288 287 286 285 284 283 280 275 275 275 275 274 269 268 269 264 263 258 245 242 239 237 251 257 247 241 248 263 272 266 283 296 296 305 299 307
286 287 288 288 290 291 292 292 291 290 289 288 287 286 283 280 273 271 272 270 271 265 261 264 260 257 251 242 241 229 243 254 256 254 236 248 275 271 282 292 294 297 310 307 307
286 286 286 285 284 285 287 289 289 289 290 292 289 287 284 284 282 273 272 271 263 259 252 249 253 249 240 239 235 246 241 258 258 260 242 256 264 276 278 285 291 292 301 306 306
286 286 285 285 287 289 290 290 292 292 291 291 290 289 287 286 287 274 264 252 243 241 243 246 244 241 236 238 243 246 255 252 261 256 258 261 270 270 276 280 287 302 303 302 310
286 286 286 286 287 288 290 289 290 292 294 293 291 285 282 282 286 269 258 243 242 241 246 243 244 242 235 248 240 260 256 261 263 260 260 263 268 274 274 280 286 295 289 304 310
285 286 288 288 288 290 290 291 291 292 291 290 290 289 280 282 286 278 270 262 250 250 252 249 245 242 244 246 246 257 264 259 262 261 264 269 275 272 278 282 286 279 286 308 310
288 288 288 289 292 293 294 294 292 290 290 290 288 288 284 289 278 277 278 272 260 248 248 246 242 239 244 257 261 259 262 266 264 265 265 270 275 258 277 263 285 270 281 302 307
286 287 290 291 292 292 292 289 290 291 290 291 292 292 289 286 287 272 267 270 260 249 247 238 239 242 239 244 258 256 258 260 263 255 244 248 268 263 258 269 284 273 279 295 301
285 287 290 292 293 292 294 293 295 296 295 294 294 294 298 292 274 277 257 256 257 247 239 242 243 241 238 237 249 246 251 250 256 260 241 244 257 253 262 272 278 272 279 293 296
286 287 289 290 291 292 296 295 296 295 298 301 299 302 293 290 285 267 255 260 267 260 245 238 238 237 227 219 230 239 245 254 254 255 260 248 253 257 268 274 275 278 285 288 290
285 286 288 290 292 295 294 296 301 300 296 298 298 293 297 287 275 261 249 252 260 259 258 245 229 226 228 230 240 253 248 251 260 252 249 261 265 259 260 270 274 269 278 292 283
284 285 288 289 291 294 298 303 304 301 297 296 299 294 290 281 272 256 247 247 240 239 249 240 238 235 235 239 243 244 248 252 259 254 267 270 271 264 256 264 266 263 267 271 279
282 282 284 286 289 291 296 300 304 306 309 305 309 299 291 281 272 252 245 244 240 234 241 252 244 247 231 239 236 242 244 250 254 258 270 277 277 269 259 254 261 261 256 262 269
281 281 282 282 283 287 291 295 300 307 315 300 300 296 287 294 280 267 253 237 231 235 227 243 252 244 239 238 232 245 243 249 255 257 263 244 278 269 254 259 257 265 262 257 252
278 278 277 276 278 279 281 285 292 309 286 281 263 262 292 282 267 252 273 285 244 227 218 231 232 241 236 239 233 248 250 248 256 255 257 254 259 274 244 254 263 260 250 239 222
275 273 272 272 273 271 269 269 276 277 242 225 233 236 300 275 279 272 295 292 268 231 231 236 251 221 228 241 238 234 247 237 244 246 245 244 237 261 247 259 256 248 233 215 223
271 270 269 267 267 263 253 239 235 235 266 253 232 241 266 282 273 280 268 240 242 256 237 246 237 241 237 229 220 218 214 213 225 214 244 219 217 236 230 254 260 266 247 241 226
266 263 263 259 255 246 229 203 221 251 229 250 233 220 266 262 272 346 241 210 260 251 272 246 233 224 227 222 219 212 204 215 226 235 241 196 225 233 254 250 243 258 227 228 236
260 257 253 248 242 235 209 208 234 237 245 253 269 267 253 270 262 316 5 187 131 313 253 310 248 244 222 226 214 217 218 233 255 262 270 237 233 241 245 232 244 265 258 243 226
250 251 244 239 237 227 212 221 226 230 239 246 254 256 255 251 250 322 285 222 235 251 9 320 282 246 232 212 222 222 221 200 222 243 243 238 242 244 221 226 243 245 253 248 227
232 244 242 234 229 223 221 227 230 236 239 239 248 247 249 265 270 298 259 273 258 267 283 303 260 252 249 218 212 212 228 229 246 234 255 262 258 220 229 245 258 273 248 245 238
226 233 237 219 218 224 229 230 244 250 247 245 245 242 241 254 270 279 270 256 266 271 290 270 270 267 254 231 202 190 225 229 234 238 235 251 255 296 217 248 246 6 236 243 225
228 229 224 212 223 226 235 238 249 247 245 243 241 242 248 253 264 263 260 265 268 242 207 291 231 257 251 232 238 230 215 218 236 242 250 252 220 169 246 241 241 257 307 263 210
226 226 231 223 227 226 237 243 242 261 245 240 242 236 236 242 240 249 256 266 240 220 228 281 241 237 261 305 293 270 247 258 259 241 254 249 258 255 260 253 237 265 275 264 244
229 231 232 232 229 228 225 235 238 236 250 236 251 235 233 244 249 252 258 264 249 258 249 245 249 251 255 263 272 272 271 268 260 257 256 263 260 258 253 250 254 270 259 245 239
227 220 227 227 235 227 231 234 232 237 230 245 240 242 240 239 237 252 263 244 235 230 231 240 241 245 254 257 259 263 259 260 260 261 267 267 262 255 251 249 255 259 239 243 240
227 229 233 236 234 233 231 231 240 243 246 249 261 259 253 253 246 268 256 250 244 248 239 244 229 239 254 247 253 251 248 248 256 255 271 272 268 264 255 247 246 250 249 241 235